Charlottetown, Prince Edward Island

10:40 PM ADT on March 25, 2017 (GMT -0300)
Charlottetown

Weather History for CYYG - January, 2015

Change the Weather History Date:

Friday, January 2, 2015

  Actual Average Record
Temperature  
Mean Temperature 22 °F -  
Max Temperature 30 °F 26 °F 48 °F (2012)
Min Temperature 14 °F 10 °F -14 °F (2014)
Degree Days  
Heating Degree Days 42    
Moisture  
Dew Point 15 °F    
Average Humidity 71    
Maximum Humidity 96    
Minimum Humidity 39    
Precipitation  
Precipitation 0.01 in 0.14 in - ()
Sea Level Pressure  
Sea Level Pressure 29.85 in    
Wind  
Wind Speed 8 mph ()    
Max Wind Speed 21 mph    
Max Gust Speed 32 mph    
Visibility 12.5 miles    
Events Snow    
Averages and records for this station are not official NWS values.
T = Trace of Precipitation, MM = Missing Value Source: Averaged Metar Reports

Daily Weather History Graph

Daily Weather History Graph

Search for Another Location

Airport or City:

Trip Planner

Search our weather history database for the weather conditions in past years. The results will help you decide how hot, cold, wet, or windy it might be!

Date:

Astronomy

Jan. 02, 2015 Rise Set
Actual Time 7:55 AM AST 4:37 PM AST
Civil Twilight 7:20 AM AST 5:12 PM AST
Nautical Twilight 6:42 AM AST 5:50 PM AST
Astronomical Twilight 6:06 AM AST 6:26 PM AST
Moon 2:57 PM AST (1/2) 5:14 AM AST (1/2)
Length of Visible Light 9h 51m
Length of Day
8h 42m
Waxing Gibbous, 94% of the Moon is Illuminated
Jan 2
Waxing Gibbous
Jan 5
Full
Jan 13
Last Quarter
Jan 20
New
Jan 27
First Quarter

Hourly Weather History & Observations

Time (AST) Temp. Windchill Dew Point Humidity Pressure Visibility Wind Dir Wind Speed Gust Speed Precip Events Conditions
12:00 AM 24.8 °F 16.9 °F 21.2 °F 86% 29.85 in 12.0 mi SSW 6.9 mph - N/A Snow Light Snow Showers
12:39 AM 24.8 °F 16.1 °F 21.2 °F 86% 29.84 in 2.0 mi SW 8.1 mph - N/A Snow Light Snow Showers
12:52 AM 24.8 °F 16.9 °F 21.2 °F 86% 29.84 in 4.0 mi SSW 6.9 mph - N/A Snow Light Snow Showers
1:00 AM 24.8 °F 16.1 °F 21.2 °F 86% 29.84 in 6.0 mi SSW 8.1 mph - N/A Snow Light Snow Showers
2:00 AM 23 °F - 18 °F 75% 29.84 in 12 mi SSW 6.9 mph - - Snow Light Snow Showers
2:00 AM 23.0 °F 14.7 °F 17.6 °F 80% 29.83 in 12.0 mi South 6.9 mph - N/A Snow Light Snow Showers
3:00 AM 23.0 °F 13.9 °F 19.4 °F 86% 29.83 in 15.0 mi South 8.1 mph - N/A   Overcast
4:00 AM 24.8 °F 17.9 °F 21.2 °F 86% 29.80 in 15.0 mi South 5.8 mph - N/A   Overcast
5:00 AM 24.8 °F 17.9 °F 19.4 °F 80% 29.78 in 15.0 mi SW 5.8 mph - N/A   Overcast
5:10 AM 24.8 °F 17.9 °F 19.4 °F 80% 29.78 in 15.0 mi SW 5.8 mph - N/A Snow Light Snow Showers
5:17 AM 24.8 °F 16.9 °F 19.4 °F 80% 29.78 in 2.5 mi SW 6.9 mph - N/A Snow Light Snow Showers
6:00 AM 24.8 °F 17.9 °F 21.2 °F 86% 29.78 in 2.0 mi SSW 5.8 mph - N/A Snow Light Snow Showers
6:13 AM 24.8 °F 19.1 °F 21.2 °F 86% 29.79 in 3.0 mi SSW 4.6 mph - N/A Snow Light Snow Showers
7:00 AM 23.0 °F 15.8 °F 21.2 °F 93% 29.79 in 15.0 mi South 5.8 mph - N/A   Scattered Clouds
8:00 AM 21 °F - 20 °F 96% 29.81 in 15 mi South 4.6 mph - -   Partly Cloudy
8:00 AM 21.2 °F 14.9 °F 19.4 °F 93% 29.80 in 15.0 mi South 4.6 mph - N/A   Mostly Cloudy
9:00 AM 23.0 °F 15.8 °F 21.2 °F 93% 29.81 in 15.0 mi South 5.8 mph - N/A   Mostly Cloudy
10:00 AM 26.6 °F 18.2 °F 19.4 °F 74% 29.82 in 15.0 mi WSW 8.1 mph - N/A   Scattered Clouds
11:00 AM 26.6 °F 16.2 °F 14.0 °F 59% 29.81 in 15.0 mi WSW 11.5 mph - N/A   Mostly Cloudy
12:00 PM 26.6 °F 16.8 °F 14.0 °F 59% 29.79 in 15.0 mi WSW 10.4 mph 18.4 mph N/A   Scattered Clouds
1:00 PM 28.4 °F 17.5 °F 15.8 °F 59% 29.78 in 15.0 mi WSW 13.8 mph 21.9 mph N/A   Partly Cloudy
2:00 PM 28 °F - 13 °F 39% 29.78 in 15 mi WSW 15.0 mph - -   Scattered Clouds
2:00 PM 28.4 °F 18.0 °F 12.2 °F 51% 29.78 in 15.0 mi WSW 12.7 mph 25.3 mph N/A   Scattered Clouds
3:00 PM 30.2 °F 21.9 °F 14.0 °F 51% 29.79 in 15.0 mi West 9.2 mph - N/A   Mostly Cloudy
4:00 PM 26.6 °F 15.7 °F 15.8 °F 64% 29.81 in 15.0 mi West 12.7 mph 20.7 mph N/A   Mostly Cloudy
5:00 PM 26.6 °F 16.2 °F 15.8 °F 64% 29.83 in 15.0 mi West 11.5 mph - N/A   Mostly Cloudy
6:00 PM 23.0 °F 10.6 °F 12.2 °F 63% 29.87 in 15.0 mi West 13.8 mph 21.9 mph N/A   Partly Cloudy
7:00 PM 23.0 °F 8.3 °F 8.6 °F 54% 29.91 in 15.0 mi West 19.6 mph 32.2 mph N/A   Partly Cloudy
8:00 PM 21 °F - 8 °F 43% 29.97 in 15 mi West 15.0 mph - -   Partly Cloudy
8:00 PM 21.2 °F 7.3 °F 8.6 °F 58% 29.96 in 15.0 mi West 16.1 mph 27.6 mph N/A   Scattered Clouds
8:15 PM 19.4 °F 3.2 °F 8.6 °F 63% 29.97 in 6.0 mi West 20.7 mph 31.1 mph N/A Snow Light Snow Showers
8:51 PM 17.6 °F 1.7 °F 3.2 °F 53% 29.99 in 15.0 mi WNW 18.4 mph 26.5 mph N/A   Scattered Clouds
9:00 PM 17.6 °F 3.2 °F 3.2 °F 53% 30.00 in 15.0 mi WNW 15.0 mph 25.3 mph N/A   Partly Cloudy
10:00 PM 15.8 °F -1.5 °F 1.4 °F 53% 30.04 in 15.0 mi WNW 20.7 mph 31.1 mph N/A   Partly Cloudy
11:00 PM 14.0 °F -3.4 °F -0.4 °F 53% 30.08 in 15.0 mi WNW 19.6 mph 31.1 mph N/A   Partly Cloudy